578  
ASUS44 KLZK 291510  
RWRLZK  
 
WEATHER ROUNDUP FOR ARKANSAS  
NATIONAL WEATHER SERVICE LITTLE ROCK AR  
900 AM CST THU FEB 29 2024  
 
NOTE: "FAIR" INDICATES FEW OR NO CLOUDS BELOW 12,000 FEET WITH NO  
SIGNIFICANT WEATHER AND/OR S TO VISIBILITY
.  
 
ARZ001-010-029-103-291600-  
NORTHWEST ARKANSAS  
 
CITY SKY/WX TMP DP RH WIND PRES REMARKS
 
FAYETTEVILLE PTSUNNY 29 22 75 CALM 30.42F  
FORT SMITH CLOUDY 38 26 62 NE7 30.46R  
HARRISON PTSUNNY 32 20 61 SE6 30.45S WCI 26  
BENTONVILLE PTSUNNY 37 20 50 SE7 30.42F  
ROGERS PTSUNNY 35 23 61 E9 30.42F WCI 28  
SILOAM SPGS N/A 33 22 63 E5 30.42S WCI 29  
HIGHFILL PTSUNNY 33 22 63 E5 30.41F WCI 29  
SPRINGDALE SUNNY 34 21 60 E6 30.42F WCI 29  

 
 
ARZ004-005-016-291600-  
NORTH CENTRAL ARKANSAS  
 
CITY SKY/WX TMP DP RH WIND PRES REMARKS
 
BATESVILLE MOSUNNY 40 18 41 E6 30.54S  
FLIPPIN PTSUNNY 31 24 75 CALM 30.51R  
MTN HOME PTSUNNY 35 18 49 S7 30.48S WCI 29  

 
 
ARZ140-141-291600-  
WEST CENTRAL ARKANSAS  
 
CITY SKY/WX TMP DP RH WIND PRES REMARKS
 
MENA PTSUNNY 34 24 67 E3 30.43S  
MOUNT IDA PTSUNNY 37 24 59 CALM 30.42S  

 
 
ARZ009-017-025-026-028-291600-  
NORTHEAST ARKANSAS  
 
CITY SKY/WX TMP DP RH WIND PRES REMARKS
 
JONESBORO MOSUNNY 40 23 50 E9 30.54R  
NEWPORT MOSUNNY 42 23 46 E12 30.54S  
WALNUT RIDGE MOSUNNY 39 23 52 E8 30.55R  
BLYTHEVILLE MOSUNNY 41 18 39 E12 30.54R  

 
 
ARZ032-043-044-291600-  
LITTLE ROCK METRO AREA  
 
CITY SKY/WX TMP DP RH WIND PRES REMARKS
 
LITTLE ROCK PTSUNNY 43 21 41 E10 30.50S  
N LTL ROCK NWS N/A 41 21 44 E7 30.51F  
NLR AIRPORT FAIR 41 18 38 E9 30.47F  
BENTON SUNNY 41 23 48 E9 30.48S  
JACKSONVILLE PTSUNNY 40 19 42 E12 30.47F  
CONWAY SUNNY 39 28 65 CALM 30.49F  

 
 
ARZ033-042-122-123-291600-  
REMAINDER OF CENTRAL ARKANSAS  
 
CITY SKY/WX TMP DP RH WIND PRES REMARKS
 
SEARCY PTSUNNY 42 23 46 NE12 30.52F  
HOT SPRINGS PTSUNNY 41 18 39 E10 30.46F  
RUSSELLVILLE CLOUDY 38 23 55 CALM 30.46F  
CLINTON PTSUNNY 36 23 60 CALM 30.51S  

 
 
ARZ036-291600-  
EAST ARKANSAS  
 
CITY SKY/WX TMP DP RH WIND PRES REMARKS
 
WEST MEMPHIS PTSUNNY 40 21 46 E9 30.53R  

 
 
ARZ050-053-066-070-072-073-291600-  
SOUTHWEST ARKANSAS  
 
CITY SKY/WX TMP DP RH WIND PRES REMARKS
 
ARKADELPHIA PTSUNNY 41 27 57 NE6 30.48F  
CAMDEN PTSUNNY 43 21 42 E6 30.47S  
TEXARKANA LGT RAIN 45 23 42 E8 30.43F  
MAGNOLIA PTSUNNY 45 23 42 NE7 30.42F  
EL DORADO CLOUDY 44 20 38 E10 30.44R  
DE QUEEN PTSUNNY 43 21 41 E9 30.44R  

 
 
ARZ056-057-069-291600-  
SOUTHEAST ARKANSAS  
 
CITY SKY/WX TMP DP RH WIND PRES REMARKS
 
PINE BLUFF PTSUNNY 45 26 47 NE10 30.50R  
STUTTGART PTSUNNY 43 27 53 E12 30.51S  
MONTICELLO CLOUDY 44 23 43 NE9 30.47S  
 

 
 
 
 
CLICK HERE TO GO TO PREVIOUS BULLETINS.

The Nexlab AR Page Main Text Page